Location: Monrovia
(34.7865°N, 86.7139°W)
Time: 21:43:59
(UTC+00:00)

SL-27 R/B - Pass Details

Date: 14 July 2020
Orbit: 420 x 470 km, 74.7° (Epoch: 08 August)

Event Time Altitude Azimuth Distance (km) Brightness Sun altitude
Exits shadow 08:35:04 25° 125° (SE) 952 4.0 -21.7°
Maximum altitude 08:35:52 28° 101° (E) 888 4.1 -21.6°
Drops below altitude 10° 08:38:52 10° 41° (NE) 1,583 6.3 -21.2°
Sets 08:41:07 0° 29° (NNE) 2,449 7.6 -20.9°
